Location: Springfield
(37.2150°N, 93.2980°W)
Time: 11:41:24
(UTC-05:00)

Daily predictions for brighter satellites

Satellite Brightness Start Highest point End
(mag) Time Altitude Azimuth Time Altitude Azimuth Time Altitude Azimuth
Cosmos 1315 Rocket 3.2 20:55:46 10° SSE 20:59:33 44° E 21:03:26 10° NNE
Cosmos 1464 Rocket 4.1 20:53:43 10° N 21:00:04 80° E 21:06:26 10° S
ATLAS 3B R/B 3.6 20:56:06 10° SW 21:03:30 62° NW 21:10:38 10° NNE
Cosmos 2242 Rocket 3.6 21:07:13 10° N 21:11:42 70° E 21:16:06 10° SSE
Timation 2 Rocket 4.3 21:12:14 10° NNW 21:18:25 55° ENE 21:24:31 11° SE
Cosmos 2082 Rocket 2.3 21:13:01 10° NNW 21:18:42 86° WSW 21:24:22 10° SSE
USA 238 DEB 4.4 21:12:00 10° SW 21:18:51 61° NW 21:25:47 10° NNE
USA 238 4.4 21:12:06 10° SW 21:18:57 62° NW 21:25:53 10° NNE
Resurs 01 Rocket 2.9 21:16:02 10° S 21:20:11 40° W 21:24:21 10° NNW
Spot 2 Rocket 4.3 21:16:41 10° S 21:21:37 51° W 21:26:36 10° NNW
Cosmos 724 4.4 21:15:27 10° SSW 21:21:39 86° ESE 21:27:49 10° NNE
Cosmos 1633 Rocket 4.4 21:18:19 10° SSW 21:22:30 43° W 21:26:42 10° N
In-Cosmos 22 Rocket 4.3 21:17:12 10° S 21:22:54 80° E 21:28:45 10° NNE
ARGOS 4.4 21:21:03 12° ESE 21:24:52 25° ENE 21:29:09 10° NNE
SAR-Lupe-4 4.3 21:22:09 14° SE 21:24:53 36° ENE 21:28:11 10° N
YAOGAN 6 2.8 21:22:38 10° SSE 21:26:15 58° ENE 21:29:54 10° N
ERS-1 Rocket 3.7 21:23:11 13° SE 21:27:16 37° ENE 21:31:52 10° N
Tiangong 2 2.8 21:30:14 10° WNW 21:33:07 30° N 21:36:00 10° ENE
Cosmos 1939 Rocket 3.2 21:30:36 10° S 21:34:43 71° W 21:38:51 10° NNW
OAO 2 Rocket 3.4 21:30:50 10° W 21:35:48 61° S 21:39:27 17° ESE
Cosmos 1833 Rocket 3.1 21:30:50 10° NNW 21:36:25 63° WSW 21:41:57 10° S
Meteor 2-10 Rocket 3.9 21:31:51 10° NNW 21:37:41 79° W 21:43:28 10° S
GPS 2-04 Rocket1 2.8 21:34:24 10° WSW 21:37:52 42° SSE 21:39:58 19° ESE
NOSS 3-2 (A) 3.5 21:32:03 10° SSW 21:37:58 85° WNW 21:44:28 10° NNE
Cosmos 1825 4.0 21:37:42 14° E 21:37:58 14° E 21:40:03 10° NE
Cosmos 1933 Rocket 3.9 21:34:08 10° SSW 21:38:26 69° W 21:42:45 10° N
Cosmos 1816 Rocket 4.4 21:32:19 10° S 21:38:31 85° E 21:44:41 10° N
Cosmos 1933 3.6 21:36:17 10° NNW 21:40:17 68° W 21:44:15 10° S
Milstar 3 4.2 21:32:35 10° SW 21:42:30 31° SSE 21:47:21 17° ESE
Aurora 2 Rocket 4.3 21:41:12 10° SW 21:43:20 13° SSW 21:44:27 12° S
Cosmos 1862 Rocket 3.8 21:39:26 10° N 21:43:55 75° W 21:48:22 10° S
Cosmos 1892 2.6 21:40:44 10° S 21:44:34 80° E 21:48:26 10° N
SAR-Lupe-1 4.2 21:43:59 22° SSE 21:46:07 58° ENE 21:49:38 10° N
Envisat 4.1 21:43:33 10° S 21:48:20 42° W 21:53:09 10° NNW
Cosmos 1898 Rocket 4.3 21:43:54 10° SSW 21:49:04 56° WNW 21:54:19 10° N
USA 215 3.4 21:45:39 18° ESE 21:50:43 71° NE 21:57:16 10° NW
Helios 1B rocket 3.1 21:48:12 10° N 21:52:14 56° WNW 21:56:14 10° SSW
Cosmos 1346 Rocket 2.7 21:49:24 10° N 21:53:20 69° E 21:55:37 24° SSE
Cosmos 1408 3.8 21:53:49 23° E 21:54:07 24° E 21:57:08 10° NE
NOSS 3-2 (C) 3.5 21:50:04 10° SSW 21:56:00 84° WNW 22:02:31 10° NNE
Cosmos 1125 Rocket 4.3 21:57:28 24° SE 21:59:23 31° E 22:03:57 10° NE
Cosmos 2346 Rocket 4.5 21:55:27 10° S 22:01:28 82° W 22:07:34 10° N
NOAA 11 4.1 21:57:30 19° SSE 22:01:29 80° ENE 22:06:59 10° N
Cosmos 990 Rocket 4.2 21:56:32 10° SSW 22:01:41 71° WNW 22:06:55 10° NNE
EO 1 Delta rocket 4.4 21:59:20 14° S 22:03:50 79° W 22:10:20 10° N
COSMOS 2487 4.2 22:02:02 10° NW 22:05:09 29° WSW 22:07:47 13° SSW
Helios 1A 4.3 22:03:10 10° SSW 22:07:01 37° W 22:10:55 10° NNW
CZ-4B DEB 3.9 22:05:25 18° SSW 22:07:06 35° W 22:09:50 10° NNW
Cosmos 1943 Rocket 2.9 22:05:38 27° SE 22:07:20 32° ESE 22:12:13 10° NE
MetOp-A 4.1 22:04:34 23° SSE 22:07:58 78° ENE 22:13:20 10° N
H-2A R/B 2.8 22:05:54 26° ESE 22:08:18 40° ENE 22:13:18 10° N
Cosmos 2369 Rocket 2.1 22:07:54 10° S 22:13:28 70° ESE 22:19:08 10° NNE
Cosmos 1340 4.0 22:14:44 10° NNE 22:17:46 24° ENE 22:17:46 24° ENE
Cosmos 1606 3.2 22:14:26 10° N 22:18:00 40° E 22:18:16 39° E
DNEPR-1 R/B 4.2 22:17:24 28° SSE 22:19:36 42° ESE 22:24:03 10° NE
Cosmos 1703 Rocket 3.6 22:15:54 10° N 22:20:20 81° W 22:22:19 32° S
Okean 1-7 3.0 22:20:11 10° N 22:24:36 74° E 22:25:54 45° SSE
Cosmos 1782 2.9 22:20:39 10° N 22:24:37 58° E 22:25:11 51° ESE
CENTAUR R/B 2.5 22:19:51 14° S 22:24:41 53° ESE 22:31:05 10° NE
Meteor 2-6 Rocket 4.5 22:20:44 10° N 22:26:36 59° E 22:28:55 36° SE
Shenzhou-11 Module 2.6 22:24:18 10° WNW 22:27:18 48° NNE 22:27:28 47° NNE
Hubble Space Telescope 3.0 22:29:03 10° SW 22:30:18 13° SW 22:30:18 13° SW
OE (NEXTSAT) 4.5 22:29:44 10° NW 22:33:16 66° NNE 22:33:27 64° NE
Cosmos 1733 Rocket 4.0 22:34:59 32° ENE 22:34:59 32° ENE 22:38:20 10° NNE
Cosmos 2221 Rocket 3.6 22:32:35 10° N 22:37:00 77° W 22:38:19 45° S
Cosmos 1869 Rocket 4.1 22:34:40 21° SSW 22:37:21 54° W 22:41:37 10° N
COSMOS 2455 3.1 22:31:51 10° SW 22:37:49 70° WNW 22:43:51 10° NNE
Cosmos 1862 3.8 22:38:51 45° ENE 22:38:51 45° ENE 22:42:13 10° NNE
Landsat 7 4.0 22:41:59 49° ESE 22:42:42 54° ENE 22:47:20 10° N
DMSP B5D2-2 4.0 22:41:05 10° NNE 22:46:16 67° ESE 22:47:26 51° SSE
GEOS 3 Rocket 3.6 22:51:25 52° ESE 22:52:36 70° NE 22:57:48 10° NNW
ATLAS 5 CENTAUR R/B 3.3 22:47:03 10° NNW 22:52:40 39° NE 22:54:47 30° E
SPOT 5 3.5 22:51:09 35° SSW 22:53:14 58° W 22:58:32 10° NNW
Nimbus 7 Rocket 4.4 22:47:38 10° NNE 22:53:33 80° WNW 22:56:51 27° SSW
Terra 2.0 22:57:36 53° E 22:57:48 54° ENE 23:02:27 10° N
Cosmos 1092 Rocket 4.3 22:57:54 44° ESE 22:58:34 46° E 23:04:23 10° NNE
Cosmos 158 Rocket 3.6 22:58:11 10° NNW 23:03:06 79° ENE 23:03:23 75° ESE
Nadezhda 4 Rocket 3.9 23:01:48 51° SSE 23:03:26 74° E 23:09:37 10° N
Cosmos 1048 Rocket 3.9 22:58:48 10° NNW 23:04:09 79° ENE 23:04:45 68° SE
ARGOS 4.2 23:02:34 26° SW 23:04:52 39° W 23:09:52 10° NNW
CARTOSAT-1 3.7 23:05:23 63° NE 23:05:23 63° NE 23:09:22 10° N
SPOT 1/Viking Rocket 3.9 23:04:50 45° SSW 23:06:06 59° W 23:11:15 10° NNW
Tiangong 2 3.2 23:07:08 10° WNW 23:08:43 26° WNW 23:08:43 26° WNW
Cosmos 1674 Rocket 4.2 23:08:34 10° N 23:12:01 46° NE 23:12:01 46° NE
Cosmos 1825 3.8 23:12:32 27° W 23:13:15 29° WNW 23:16:35 10° NNW
H-2A ROCKET BODY 3.6 23:08:54 10° WSW 23:37:05 - ESE 23:11:45 31° SSW
Cosmos 1656 Rocket 4.0 23:14:57 48° ENE 23:14:57 48° ENE 23:19:30 10° NNE
Intercosmos 25 Rocket 4.1 23:08:15 10° N 23:16:09 82° E 23:16:52 69° SSE
BREEZE-M DEB (TANK) 4.3 23:12:04 10° NW 23:16:15 61° NE 23:27:59 19° ESE
CZ-4 R/B 4.4 23:15:09 10° NNE 23:18:38 44° NE 23:18:38 44° NE
Lacrosse 5 rocket 2.4 23:19:48 37° NW 23:19:48 37° NW 23:23:14 10° NNE
Cosmos 2084 4.2 23:17:01 10° NW 23:19:48 43° WNW 23:19:48 43° WNW
H-2A R/B 2.8 23:23:41 45° NNE 23:23:41 45° NNE 23:26:45 10° N
Cosmos 2344 3.6 23:15:25 10° SW 23:23:06 83° WNW 23:31:27 10° NNE
Cosmos 1269 Rocket 4.1 23:25:04 10° NNW 23:30:19 64° WSW 23:30:26 64° WSW
USA 215 4.4 23:33:00 27° SW 23:33:59 28° SW 23:39:30 10° WNW
CZ-2C R/B 4.2 23:35:40 10° NE 23:38:07 22° ENE 23:38:07 22° ENE
Cosmos 1908 Rocket 4.5 23:44:18 46° N 23:44:18 46° N 23:47:28 10° N
Lacrosse 4 Rocket 2.3 23:38:45 10° NNW 23:42:08 50° NNW 23:42:08 50° NNW
Cosmos 1655 Rocket 4.3 23:47:23 50° ENE 23:47:23 50° ENE 23:52:55 10° NNE
H-2A R/B 3.8 23:46:32 22° WSW 23:47:46 24° W 23:52:04 10° NW
Cosmos 1943 Rocket 3.7 23:47:03 15° WSW 23:50:59 32° WNW 23:55:56 10° N
Cosmos 2195 Rocket 4.3 23:52:20 83° SSE 23:52:35 87° E 23:58:57 10° N
